Вернуться в каталог

DELTA 2 R/B

АктивенLEO
NORAD 21393·ROCKET BODY·🇺🇸 United States

Запущен May 29, 1991 с Cape Canaveral Space Force Station

Loading…

Ближайшие Пролёты (ближайшие 24 часа)

TLE

СвежийSource: Space-Track

Эпоха: Sep 14, 2026, 18:38 UTC

1 21393U 91037B   26257.77689360  .00007136  00000-0  47803-3 0  9998
2 21393  24.9846   8.3400 0774165 263.9251  87.2580 13.83450272711000

Отслеживайте DELTA 2 R/B в реальном времени с AllMySat

Download on the App Store